Regional Weather Roundup
Issued by NWS

Home | Current Version | Previous Version | Graphics & Text | Print | Product List | Glossary On
Versions: 1 2 3 4 5 6 7 8 9 10 11 12 13 14 15 16 17 18 19 20 21 22 23 24 25 26 27 28 29 30 31 32 33 34 35 36 37 38 39 40 41 42 43 44 45 46 47 48 49 50
047
ASUS43 KDTX 220601
RWRMI
MICHIGAN HOURLY REGIONAL WEATHER ROUNDUP
NATIONAL WEATHER SERVICE DETROIT/PONTIAC MI
200 AM EDT FRI SEP 22 2017

NOTE: "FAIR" INDICATES FEW OR NO CLOUDS BELOW 12,000 FEET WITH NO
SIGNIFICANT WEATHER AND/OR OBSTRUCTION TO VISIBILITY.

MIZ047>049-052>055-059>063-066>070-074>076-081>083-220700-
SOUTHEAST LOWER MICHIGAN

CITY           SKY/WX    TMP DP  RH WIND       PRES   REMARKS
ADRIAN         CLEAR     71  67  87 CALM      30.09S
6HR MIN TEMP:  70; 6HR MAX TEMP:  83;

ALMA           CLEAR     65  62  90 S3        30.09S
ANN ARBOR      CLEAR     68  66  93 CALM      30.09R
BAD AXE        CLEAR     69  65  85 S7        30.11R
CARO           CLOUDY    67  65  94 E3        30.09R FOG
DETROIT CITY   CLEAR     71  65  81 CALM      30.10S
6HR MIN TEMP:  69; 6HR MAX TEMP:  78;

DETROIT        PTCLDY    72  65  78 CALM      30.09R
6HR MIN TEMP:  72; 6HR MAX TEMP:  79;

FLINT          CLEAR     63  61  93 CALM      30.09R
6HR MIN TEMP:  63; 6HR MAX TEMP:  75; 6HR PCP: TRACE;

GROSSE ILE     CLEAR     72  64  77 SE3       30.07F
6HR MIN TEMP:  71; 6HR MAX TEMP:  75;

HILLSDALE      CLEAR     70  64  83 SE3       30.09R
HOWELL         CLEAR     65  64  94 CALM      30.09S
6HR MIN TEMP:  64; 6HR MAX TEMP:  71; 6HR PCP:  0.04;


CITY           SKY/WX    TMP DP  RH WIND       PRES   REMARKS
JACKSON        CLEAR     71  63  75 SE3       30.09R
6HR MIN TEMP:  66; 6HR MAX TEMP:  76;

LAMBERTVILLE   CLEAR     71  68  90 CALM      30.08S FOG
6HR MIN TEMP:  71; 6HR MAX TEMP:  78;

LANSING        CLEAR     66  63  90 CALM      30.09S
6HR MIN TEMP:  65; 6HR MAX TEMP:  72; 6HR PCP: TRACE;

LAPEER         FAIR      69  63  82 CALM      30.11R
6HR MIN TEMP:  67; 6HR MAX TEMP:  78;

MASON          CLEAR     67  64  89 CALM      30.09R
MONROE         CLEAR     72  67  83 E5        30.07S
6HR MIN TEMP:  72; 6HR MAX TEMP:  76;

MT. CLEMENS    CLEAR     67  67 100 CALM      30.09R
6HR MIN TEMP:  67; 6HR MAX TEMP:  75;

PONTIAC        CLEAR     71  66  84 CALM      30.10R
6HR MIN TEMP:  69; 6HR MAX TEMP:  77;

PORT HOPE        N/A     73  65  75 VRB5      30.07R
6HR MIN TEMP:  73; 6HR MAX TEMP:  78;

PORT HURON     CLEAR     64  63  94 CALM      30.11R
TRI CITIES     CLEAR     67  64  90 CALM      30.08S
6HR MIN TEMP:  65; 6HR MAX TEMP:  77;

MIDLAND        FAIR      64  63  96 CALM      30.07S
6HR MIN TEMP:  64; 6HR MAX TEMP:  78;

TROY           CLEAR     71  64  78 CALM      30.12S
SAGINAW HB     CLEAR     63  59  88 CALM      30.08R
$$
MIZ043>046-050>051-056>058-064>065-071>073-077>080-220700-
SOUTHWEST LOWER MICHIGAN

CITY           SKY/WX    TMP DP  RH WIND       PRES   REMARKS
BATTLE CREEK   CLEAR     71  65  81 CALM      30.08S
6HR MIN TEMP:  69; 6HR MAX TEMP:  76;

BENTON HARBOR  CLEAR     73  67  81 SE5       30.05S
6HR MIN TEMP:  72; 6HR MAX TEMP:  78;

BIG RAPIDS     CLEAR     64  62  94 CALM      30.07S FOG
6HR MIN TEMP:  64; 6HR MAX TEMP:  75;

COLDWATER      CLEAR     72  66  81 CALM      30.08S
6HR MIN TEMP:  72; 6HR MAX TEMP:  78;

FREMONT        FAIR      69  65  90 CALM      30.05S
HOLLAND        CLEAR     70  63  78 S6        30.05F
6HR MIN TEMP:  70; 6HR MAX TEMP:  80;

GRAND RAPIDS   CLEAR     69  64  84 SE5       30.06S
6HR MIN TEMP:  69; 6HR MAX TEMP:  80;

IONIA          FAIR      65  64  96 E3        30.07S
6HR MIN TEMP:  64; 6HR MAX TEMP:  74;

KALAMAZOO      CLEAR     70  64  81 CALM      30.08S
6HR MIN TEMP:  69; 6HR MAX TEMP:  77;

LUDINGTON      PTCLDY    65  64  96 CALM      30.03R
6HR MIN TEMP:  63; 6HR MAX TEMP:  69;

MARSHALL       CLEAR     65  65  98 CALM      30.08R
6HR MIN TEMP:  65; 6HR MAX TEMP:  74;

MOUNT PLEASANT CLEAR     67  65  91 CALM      30.07S
6HR MIN TEMP:  66; 6HR MAX TEMP:  82;

MUSKEGON       CLEAR     76  64  66 SE7       30.04S
6HR MIN TEMP:  74; 6HR MAX TEMP:  80;

SOUTH HAVEN    CLEAR     73  66  80 CALM      30.05S
$$
MIZ016>042-220700-
NORTHERN LOWER MICHIGAN

CITY           SKY/WX    TMP DP  RH WIND       PRES   REMARKS
ALPENA         CLEAR     62  62 100 S5        30.06S
6HR MIN TEMP:  62; 6HR MAX TEMP:  71;

BEAVER ISLAND  CLEAR     65  65 100 SE3       30.04S
6HR MIN TEMP:  63; 6HR MAX TEMP:  70;

BELLAIRE       FOG       61  60  96 CALM      30.05R VSB<1/4
6HR MIN TEMP:  61; 6HR MAX TEMP:  72;

CADILLAC       CLOUDY    64  61  89 CALM      30.08S
CHARLEVOIX     CLEAR     67  67 100 E3        30.07R
FRANKFORT      CLEAR     65  65 100 CALM      30.03S
GAYLORD        CLOUDY    63  61  93 CALM      30.08S
6HR MIN TEMP:  62; 6HR MAX TEMP:  75;

GRAYLING       FOG       61  59  94 CALM      30.09S VSB 1/4
6HR MIN TEMP:  61; 6HR MAX TEMP:  77;

HARBOR SPRINGS CLEAR     64  63  95 NE5       30.04S FOG
HOUGHTON LAKE  FOG       63  62  97 CALM      30.09R VSB 1/4
6HR MIN TEMP:  63; 6HR MAX TEMP:  78;

MANISTEE       CLOUDY    65  64  97 E6        30.03S
OSCODA         CLEAR     71  64  78 SW8G17    30.07R
6HR MIN TEMP:  67; 6HR MAX TEMP:  76;

PELLSTON       FOG       60  60 100 CALM      30.05S VSB 1/4
6HR MIN TEMP:  59; 6HR MAX TEMP:  72;

ROGERS CITY    CLEAR     64  64  97 SW3       30.06S FOG
TRAVERSE CITY  CLEAR     65  62  90 CALM      30.02F
6HR MIN TEMP:  63; 6HR MAX TEMP:  73;

$$
MIZ007>008-015-220700-
EASTERN UPPER MICHIGAN

CITY           SKY/WX    TMP DP  RH WIND       PRES   REMARKS
KINROSS        CLEAR     65  64  97 SE6       30.06S FOG
6HR MIN TEMP:  64; 6HR MAX TEMP:  71;

MACKINAC ISLAN PTCLDY    66  66 100 SE6       30.05S FOG
6HR MIN TEMP:  66; 6HR MAX TEMP:  71;

NEWBERRY       FOG       63  62  97 SE3       30.04R VSB 1/2
6HR MIN TEMP:  63; 6HR MAX TEMP:  69;

S. S. MARIE    CLEAR     67  65  93 E3        30.05F FOG
6HR MIN TEMP:  66; 6HR MAX TEMP:  73;

MUNISING         N/A     66  66 100 S7        30.00S
6HR MIN TEMP:  59; 6HR MAX TEMP:  66;

$$
MIZ004>006-011>014-085-220700-
CENTRAL UPPER MICHIGAN

CITY           SKY/WX    TMP DP  RH WIND       PRES   REMARKS
MANISTIQUE     MOCLDY    64  58  82 CALM      30.02F HAZE
6HR MIN TEMP:  62; 6HR MAX TEMP:  67;

ESCANABA       FOG       64  64 100 CALM      30.01S VSB 1/4
6HR MIN TEMP:  63; 6HR MAX TEMP:  68;

MENOMINEE      CLEAR     64  64 100 SE5       30.01F FOG
SAWYER-GWINN   DRZL/FOG  63  63  98 S9        30.02S VSB 1/4
6HR MIN TEMP:  60; 6HR MAX TEMP:  65;

$$
MIZ001>003-009>011-084-220700-
WESTERN UPPER MICHIGAN

CITY           SKY/WX    TMP DP  RH WIND       PRES   REMARKS
IRON MOUNTAIN  FOG       66  64  93 SE5       30.01S VSB 1
6HR MIN TEMP:  66; 6HR MAX TEMP:  74;

HOUGHTON       PTCLDY    60  57  89 E8        29.96F
6HR MIN TEMP:  57; 6HR MAX TEMP:  62;

COPPER HARBOR    N/A     64  61  90 CALM      29.97R
6HR MIN TEMP:  58; 6HR MAX TEMP:  64;

IRONWOOD       CLEAR     72  65  78 S13G20    29.93F
6HR MIN TEMP:  71; 6HR MAX TEMP:  75;

$$

ABBREVIATIONS USED IN REMARKS
   TC - TEMPERATURE IN CELSIUS
  WCI - WIND CHILL INDEX
   HX - HEAT INDEX
  VSB - VISIBILITY





USA.gov is the U.S. government's official web portal to all federal, state and local government web resources and services.